Location: *
(32.3300°N, 34.8500°E)
Time: 03:05:59
(UTC+00:00)

SL-8 Rocket - Pass Details

Date: 22 October 2019
Orbit: 957 x 991 km, 82.9° (Epoch: 12 November)

Event Time Altitude Azimuth Distance (km) Brightness Sun altitude
Rises 02:51:36 0° 189° (S) 3,649 7.0 -12.8°
Reaches altitude 10° 02:54:07 10° 191° (S) 2,700 6.3 -12.3°
Maximum altitude 03:00:17 74° 276° (W) 1,001 3.9 -11.0°
Drops below altitude 10° 03:06:27 10° 2° (N) 2,696 6.3 -9.7°
Sets 03:08:58 0° 4° (N) 3,643 7.0 -9.2°
